Flag for Finland Weather past 2 weeks in Tampere, Finland

36 °F

Sprinkles. Overcast.

Feels Like: 29 °F
Forecast: 32 / 37 °F
Wind: 8 mph from Southeast

Location: Tampere / Pirkkala

Current Time: Nov 25, 2015 at 4:39:40 AM

Latest Report: Nov 25, 2015 at 4:20 AM

Visibility: 4 mi

Pressure: 29.62 "Hg

Humidity: 100%

Dew point: 36 °F

Location of TampereLocation

Historic Weather in Tampere — Graph


Tampere temperature yesterday

Maximum temperature yesterday: 34 °F (at 7:20 PM)
Minimum temperature yesterday: 21 °F (at 3:50 AM)
Average temperature yesterday: 28 °F

Past Weeks' High & Low Weather Summary

High45 °F (Nov 14, 12:50 AM)100% (Nov 10, 5:50 AM)29.98 "Hg (Nov 10, 5:50 AM)
Low21 °F (Nov 24, 3:50 AM)86% (Nov 22, 9:20 PM)29.06 "Hg (Nov 21, 11:20 AM)
Average35 °F98%29.49 "Hg
* Reported Nov 10 5:50 AM — Nov 25 3:20 AM, Tampere, Weather by CustomWeather, © 2015

Note: Actual official high and low records may vary slightly from our data, if they occured in-between our weather recording intervals... More about our weather records


Tampere weather history for previous 24 hours

Time TempWeatherWind HumidityBarometerVisibility
3:20 AM
Wed, Nov 25
36 °FOvercast.10 mph100%29.62 "HgN/A
2:20 AM36 °FLow clouds.9 mph100%29.62 "Hg6 mi
1:50 AM36 °FPassing clouds.7 mph100%29.65 "Hg4 mi
1:20 AM34 °FFog.8 mph100%29.65 "Hg1 mi
12:50 AM34 °FFog.8 mph100%29.65 "Hg1 mi
12:20 AM34 °FFog.7 mph100%29.65 "Hg1 mi
11:50 PM
Tue, Nov 24
34 °FFog.8 mph100%29.65 "Hg3 mi
11:20 PM34 °FMostly cloudy.7 mph100%29.68 "HgN/A
10:50 PM34 °FLow clouds.8 mph100%29.68 "HgN/A
10:20 PM34 °FLow clouds.10 mph100%29.68 "HgN/A
9:50 PM34 °FMostly cloudy.9 mph100%29.68 "HgN/A
9:20 PM34 °FMostly cloudy.8 mph100%29.68 "HgN/A
8:50 PM34 °FPassing clouds.8 mph100%29.68 "HgN/A
8:20 PM34 °FPartly cloudy.9 mph100%29.71 "HgN/A
7:50 PM34 °FPassing clouds.9 mph100%29.71 "HgN/A
7:20 PM34 °FMostly cloudy.10 mph100%29.71 "HgN/A
6:50 PM32 °FPassing clouds.12 mph100%29.71 "HgN/A
6:20 PM32 °FPassing clouds.9 mph100%29.71 "Hg4 mi
5:50 PM32 °FIce fog.7 mph100%29.71 "Hg2 mi
5:20 PM32 °FMostly cloudy.9 mph100%29.74 "Hg3 mi
4:50 PM30 °FLow clouds.8 mph100%29.74 "Hg6 mi
4:20 PM30 °FLow clouds.7 mph100%29.74 "Hg3 mi
3:50 PM30 °FPartly cloudy.9 mph100%29.74 "HgN/A
3:20 PM28 °FScattered clouds.7 mph100%29.74 "HgN/A
2:50 PM28 °FPassing clouds.8 mph100%29.74 "HgN/A
2:20 PM28 °FPassing clouds.7 mph100%29.77 "HgN/A
1:50 PM28 °FScattered clouds.8 mph100%29.77 "HgN/A
1:15 PM28 °FPartly sunny.8 mph100%29.77 "HgN/A
12:20 PM27 °FPartly sunny.8 mph100%29.80 "HgN/A
11:50 AM27 °FPartly sunny.8 mph100%29.80 "HgN/A
11:20 AM27 °FPartly sunny.7 mph93%29.80 "HgN/A
10:50 AM25 °FPartly sunny.6 mph100%29.80 "HgN/A
10:20 AM25 °FScattered clouds.6 mph93%29.80 "HgN/A
9:50 AM23 °FScattered clouds.7 mph100%29.83 "HgN/A
8:50 AM25 °FPassing clouds.7 mph93%29.83 "HgN/A
8:20 AM25 °FPassing clouds.6 mph93%29.83 "HgN/A
7:50 AM25 °FPartly cloudy.5 mph93%29.83 "HgN/A
7:20 AM25 °FPassing clouds.8 mph93%29.83 "HgN/A
6:50 AM25 °FPassing clouds.7 mph93%29.83 "HgN/A
6:20 AM23 °FPassing clouds.6 mph100%29.83 "HgN/A
5:50 AM23 °FPassing clouds.8 mph100%29.83 "HgN/A
4:50 AM21 °FClear.6 mph100%29.86 "Hg10 mi
4:20 AM21 °FIce fog.1 mph100%29.86 "Hg2 mi
Weather by CustomWeather, © 2015

See weather overviewHow to use our weather pages